Time,TemperatureF,DewpointF,PressureIn,WindDirection,WindDirectionDegrees,WindSpeedMPH,WindSpeedGustMPH,Humidity,HourlyPrecipIn,Conditions,Clouds,dailyrainin,SoftwareType,DateUTC
2013-02-18 00:00:00,16.0,3.8,30.27,West,270,0.0,0.0,58,0.00,,,0.00,Weather View 32 v70,2013-02-18 05:00:00,
2013-02-18 00:15:00,16.0,3.5,30.27,West,270,0.0,0.0,57,0.00,,,0.00,Weather View 32 v70,2013-02-18 05:15:00,
2013-02-18 00:30:00,17.0,4.8,30.27,West,270,0.0,0.0,58,0.00,,,0.00,Weather View 32 v70,2013-02-18 05:30:00,
2013-02-18 00:45:00,17.0,4.4,30.27,West,270,0.0,0.0,57,0.00,,,0.00,Weather View 32 v70,2013-02-18 05:45:00,
2013-02-18 01:00:00,17.0,5.1,30.28,West,270,0.0,0.0,59,0.00,,,0.00,Weather View 32 v70,2013-02-18 06:00:00,
2013-02-18 01:15:00,17.0,4.8,30.28,SW,225,0.0,1.0,58,0.00,,,0.00,Weather View 32 v70,2013-02-18 06:15:00,
2013-02-18 01:30:00,17.0,5.1,30.28,SSW,202,2.0,2.0,59,0.00,,,0.00,Weather View 32 v70,2013-02-18 06:30:00,
2013-02-18 01:45:00,17.0,4.8,30.28,South,180,1.0,3.0,58,0.00,,,0.00,Weather View 32 v70,2013-02-18 06:45:00,
2013-02-18 02:00:00,17.0,3.2,30.28,SE,135,2.0,3.0,54,0.00,,,0.00,Weather View 32 v70,2013-02-18 07:00:00,
2013-02-18 02:15:00,18.0,4.6,30.28,SE,135,1.0,3.0,55,0.00,,,0.00,Weather View 32 v70,2013-02-18 07:15:00,
2013-02-18 02:30:00,18.0,4.2,30.28,NE,45,3.0,3.0,54,0.00,,,0.00,Weather View 32 v70,2013-02-18 07:30:00,
2013-02-18 02:45:00,17.0,5.1,30.28,SSE,157,0.0,3.0,59,0.00,,,0.00,Weather View 32 v70,2013-02-18 07:45:00,
2013-02-18 03:00:00,18.0,5.3,30.28,South,180,1.0,6.0,57,0.00,,,0.00,Weather View 32 v70,2013-02-18 08:00:00,
2013-02-18 03:15:00,18.0,4.2,30.27,SE,135,2.0,6.0,54,0.00,,,0.00,Weather View 32 v70,2013-02-18 08:15:00,
2013-02-18 03:30:00,19.0,5.1,30.27,SE,135,2.0,6.0,54,0.00,,,0.00,Weather View 32 v70,2013-02-18 08:30:00,
2013-02-18 03:45:00,19.0,5.9,30.27,SE,135,1.0,6.0,56,0.00,,,0.00,Weather View 32 v70,2013-02-18 08:45:00,
2013-02-18 04:00:00,18.0,6.5,30.28,South,180,0.0,4.0,60,0.00,,,0.00,Weather View 32 v70,2013-02-18 09:00:00,
2013-02-18 04:15:00,17.0,6.2,30.29,South,180,0.0,6.0,62,0.00,,,0.00,Weather View 32 v70,2013-02-18 09:15:00,
2013-02-18 04:30:00,18.0,6.1,30.28,SW,225,4.0,7.0,59,0.00,,,0.00,Weather View 32 v70,2013-02-18 09:30:00,
2013-02-18 04:45:00,19.0,6.3,30.28,SSE,157,1.0,8.0,57,0.00,,,0.00,Weather View 32 v70,2013-02-18 09:45:00,
2013-02-18 05:00:00,20.0,6.8,30.29,SSW,202,1.0,8.0,56,0.00,,,0.00,Weather View 32 v70,2013-02-18 10:00:00,
2013-02-18 05:15:00,20.0,6.4,30.29,NE,45,3.0,10.0,55,0.00,,,0.00,Weather View 32 v70,2013-02-18 10:15:00,
2013-02-18 05:30:00,21.0,7.8,30.29,NE,45,9.0,10.0,56,0.00,,,0.00,Weather View 32 v70,2013-02-18 10:30:00,
2013-02-18 05:45:00,21.0,7.8,30.29,SW,225,6.0,10.0,56,0.00,,,0.00,Weather View 32 v70,2013-02-18 10:45:00,
2013-02-18 06:00:00,21.0,8.2,30.29,South,180,1.0,10.0,57,0.00,,,0.00,Weather View 32 v70,2013-02-18 11:00:00,
2013-02-18 06:15:00,22.0,7.5,30.28,SSW,202,6.0,9.0,53,0.00,,,0.00,Weather View 32 v70,2013-02-18 11:15:00,
2013-02-18 06:30:00,23.0,8.4,30.28,WSW,247,6.0,9.0,53,0.00,,,0.00,Weather View 32 v70,2013-02-18 11:30:00,
2013-02-18 06:45:00,24.0,8.9,30.28,South,180,6.0,10.0,52,0.00,,,0.00,Weather View 32 v70,2013-02-18 11:45:00,
2013-02-18 07:00:00,24.0,8.9,30.28,WSW,247,4.0,10.0,52,0.00,,,0.00,Weather View 32 v70,2013-02-18 12:00:00,
2013-02-18 07:15:00,24.0,9.8,30.28,SSW,202,2.0,10.0,54,0.00,,,0.00,Weather View 32 v70,2013-02-18 12:15:00,